Time,TemperatureF,DewpointF,PressureIn,WindDirection,WindDirectionDegrees,WindSpeedMPH,WindSpeedGustMPH,Humidity,HourlyPrecipIn,Conditions,Clouds,dailyrainin,SoftwareType,DateUTC
2013-02-12 00:00:00,21.2,15.7,28.95,NW,315,6.9,6.9,79,0.00,RA,,0.00,WeatherDisplay:10.37,2013-02-12 06:00:00,
2013-02-12 00:05:00,21.2,15.7,28.95,NNW,338,5.8,5.8,79,0.00,RA,,0.00,WeatherDisplay:10.37,2013-02-12 06:05:00,
2013-02-12 00:10:00,21.2,16.0,28.95,North,0,2.3,2.3,80,0.00,CLR,,0.00,WeatherDisplay:10.37,2013-02-12 06:10:00,
2013-02-12 00:15:00,21.2,16.3,28.96,NW,315,5.8,5.8,81,0.00,CLR,,0.00,WeatherDisplay:10.37,2013-02-12 06:15:00,
2013-02-12 00:20:00,20.8,15.9,28.96,SW,225,5.8,5.8,81,0.00,CLR,,0.00,WeatherDisplay:10.37,2013-02-12 06:20:00,
2013-02-12 00:25:00,20.8,15.9,28.95,SW,225,3.5,3.5,81,0.00,CLR,,0.00,WeatherDisplay:10.37,2013-02-12 06:25:00,
2013-02-12 00:30:00,20.7,15.8,28.95,North,0,10.4,10.4,81,0.00,CLR,,0.00,WeatherDisplay:10.37,2013-02-12 06:30:00,
2013-02-12 00:35:00,20.7,15.8,28.95,NW,315,4.6,4.6,81,0.00,CLR,,0.00,WeatherDisplay:10.37,2013-02-12 06:35:00,
2013-02-12 00:40:00,20.7,15.5,28.95,NW,315,8.1,8.1,80,0.00,CLR,,0.00,WeatherDisplay:10.37,2013-02-12 06:40:00,
2013-02-12 00:45:00,20.7,15.8,28.95,NNW,338,3.5,3.5,81,0.00,CLR,,0.00,WeatherDisplay:10.37,2013-02-12 06:45:00,
2013-02-12 00:50:00,20.7,15.8,28.95,NW,315,2.3,2.3,81,0.00,CLR,,0.00,WeatherDisplay:10.37,2013-02-12 06:50:00,
2013-02-12 00:55:00,20.5,15.6,28.95,West,270,3.5,3.5,81,0.00,CLR,,0.00,WeatherDisplay:10.37,2013-02-12 06:55:00,
2013-02-12 01:00:00,20.3,15.7,28.95,West,270,5.8,5.8,82,0.00,CLR,,0.00,WeatherDisplay:10.37,2013-02-12 07:00:00,
2013-02-12 01:05:00,20.3,15.4,28.95,West,270,4.6,4.6,81,0.00,CLR,,0.00,WeatherDisplay:10.37,2013-02-12 07:05:00,
2013-02-12 01:10:00,19.9,15.3,28.94,West,270,10.4,10.4,82,0.00,CLR,,0.00,WeatherDisplay:10.37,2013-02-12 07:10:00,
2013-02-12 01:15:00,19.8,15.2,28.95,West,270,4.6,4.6,82,0.00,CLR,,0.00,WeatherDisplay:10.37,2013-02-12 07:15:00,
2013-02-12 01:20:00,19.8,15.2,28.95,West,270,8.1,8.1,82,0.00,CLR,,0.00,WeatherDisplay:10.37,2013-02-12 07:20:00,
2013-02-12 01:25:00,19.8,15.2,28.95,WNW,292,6.9,6.9,82,0.00,CLR,,0.00,WeatherDisplay:10.37,2013-02-12 07:25:00,
2013-02-12 01:30:00,19.6,15.0,28.95,West,270,6.9,6.9,82,0.00,CLR,,0.00,WeatherDisplay:10.37,2013-02-12 07:30:00,
2013-02-12 01:35:00,19.6,15.0,28.95,West,270,5.8,5.8,82,0.00,CLR,,0.00,WeatherDisplay:10.37,2013-02-12 07:35:00,
2013-02-12 01:40:00,19.4,14.8,28.95,West,270,3.5,4.5,82,0.00,CLR,,0.00,WeatherDisplay:10.37,2013-02-12 07:40:00,
2013-02-12 01:45:00,19.4,14.8,28.95,West,270,5.8,5.8,82,0.00,CLR,,0.00,WeatherDisplay:10.37,2013-02-12 07:45:00,
2013-02-12 01:50:00,19.2,14.6,28.96,West,270,8.1,8.1,82,0.00,CLR,,0.00,WeatherDisplay:10.37,2013-02-12 07:50:00,
2013-02-12 01:55:00,19.2,14.6,28.96,West,270,8.1,8.1,82,0.00,CLR,,0.00,WeatherDisplay:10.37,2013-02-12 07:55:00,
2013-02-12 02:00:00,19.0,14.4,28.95,South,180,5.8,5.8,82,0.00,CLR,,0.00,WeatherDisplay:10.37,2013-02-12 08:00:00,
2013-02-12 02:05:00,19.0,14.4,28.95,South,180,5.8,5.8,82,0.00,CLR,,0.00,WeatherDisplay:10.37,2013-02-12 08:05:00,
2013-02-12 02:10:00,18.9,14.3,28.96,West,270,5.8,5.8,82,0.00,CLR,,0.00,WeatherDisplay:10.37,2013-02-12 08:10:00,
2013-02-12 02:15:00,18.9,14.3,28.96,WNW,292,3.5,3.5,82,0.00,CLR,,0.00,WeatherDisplay:10.37,2013-02-12 08:15:00,
2013-02-12 02:20:00,18.9,14.3,28.96,West,270,6.9,6.9,82,0.00,CLR,,0.00,WeatherDisplay:10.37,2013-02-12 08:20:00,
2013-02-12 02:25:00,18.9,14.3,28.96,NW,315,5.8,5.8,82,0.00,CLR,,0.00,WeatherDisplay:10.37,2013-02-12 08:25:00,
2013-02-12 02:30:00,18.7,14.1,28.96,NW,315,4.6,4.6,82,0.00,CLR,,0.00,WeatherDisplay:10.37,2013-02-12 08:30:00,
2013-02-12 02:35:00,18.7,14.4,28.96,West,270,3.5,3.5,83,0.00,CLR,,0.00,WeatherDisplay:10.37,2013-02-12 08:35:00,
2013-02-12 02:40:00,18.7,14.4,28.96,West,270,5.8,5.8,83,0.00,CLR,,0.00,WeatherDisplay:10.37,2013-02-12 08:40:00,
2013-02-12 02:45:00,18.7,14.4,28.96,South,180,3.5,3.5,83,0.00,CLR,,0.00,WeatherDisplay:10.37,2013-02-12 08:45:00,
2013-02-12 02:50:00,18.7,14.4,28.97,South,180,3.5,3.5,83,0.00,CLR,,0.00,WeatherDisplay:10.37,2013-02-12 08:50:00,
2013-02-12 02:55:00,18.5,14.2,28.96,NW,315,3.5,3.5,83,0.00,CLR,,0.00,WeatherDisplay:10.37,2013-02-12 08:55:00,
2013-02-12 03:00:00,18.5,14.2,28.96,West,270,3.5,3.5,83,0.00,CLR,,0.00,WeatherDisplay:10.37,2013-02-12 09:00:00,
2013-02-12 03:05:00,18.5,14.2,28.96,West,270,3.5,3.5,83,0.00,CLR,,0.00,WeatherDisplay:10.37,2013-02-12 09:05:00,
2013-02-12 03:10:00,18.5,14.2,28.96,West,270,3.5,3.5,83,0.00,CLR,,0.00,WeatherDisplay:10.37,2013-02-12 09:10:00,
2013-02-12 03:15:00,18.5,14.2,28.96,West,270,3.5,3.5,83,0.00,CLR,,0.00,WeatherDisplay:10.37,2013-02-12 09:15:00,
2013-02-12 03:20:00,18.5,14.2,28.96,West,270,5.8,5.8,83,0.00,CLR,,0.00,WeatherDisplay:10.37,2013-02-12 09:20:00,
2013-02-12 03:25:00,18.5,14.2,28.96,West,270,8.1,8.1,83,0.00,CLR,,0.00,WeatherDisplay:10.37,2013-02-12 09:25:00,
2013-02-12 03:30:00,18.5,14.2,28.96,West,270,6.9,6.9,83,0.00,CLR,,0.00,WeatherDisplay:10.37,2013-02-12 09:30:00,
2013-02-12 03:36:00,18.3,14.0,28.95,West,270,5.8,5.8,83,0.00,CLR,,0.00,WeatherDisplay:10.37,2013-02-12 09:36:00,
2013-02-12 03:41:00,18.3,13.7,28.95,West,270,6.9,6.9,82,0.00,CLR,,0.00,WeatherDisplay:10.37,2013-02-12 09:41:00,
2013-02-12 03:46:00,18.3,13.7,28.95,West,270,6.9,6.9,82,0.00,CLR,,0.00,WeatherDisplay:10.37,2013-02-12 09:46:00,
2013-02-12 03:51:00,18.3,13.7,28.95,West,270,8.1,8.1,82,0.00,CLR,,0.00,WeatherDisplay:10.37,2013-02-12 09:51:00,
2013-02-12 03:56:00,18.1,13.6,28.96,WNW,292,6.9,6.9,82,0.00,CLR,,0.00,WeatherDisplay:10.37,2013-02-12 09:56:00,
2013-02-12 04:01:00,18.1,13.6,28.95,West,270,4.6,4.6,82,0.00,CLR,,0.00,WeatherDisplay:10.37,2013-02-12 10:01:00,
2013-02-12 04:06:00,18.1,13.6,28.96,West,270,4.6,4.6,82,0.00,CLR,,0.00,WeatherDisplay:10.37,2013-02-12 10:06:00,
2013-02-12 04:11:00,18.1,13.3,28.96,West,270,8.1,8.1,81,0.00,CLR,,0.00,WeatherDisplay:10.37,2013-02-12 10:11:00,
2013-02-12 04:16:00,18.1,13.3,28.96,West,270,5.8,5.8,81,0.00,CLR,,0.00,WeatherDisplay:10.37,2013-02-12 10:16:00,
2013-02-12 04:21:00,18.1,13.3,28.96,West,270,5.8,5.8,81,0.00,CLR,,0.00,WeatherDisplay:10.37,2013-02-12 10:21:00,
2013-02-12 04:26:00,18.0,13.4,28.96,West,270,5.8,5.8,82,0.00,CLR,,0.00,WeatherDisplay:10.37,2013-02-12 10:26:00,
2013-02-12 04:31:00,18.0,13.4,28.96,NW,315,3.5,3.5,82,0.00,CLR,,0.00,WeatherDisplay:10.37,2013-02-12 10:31:00,
2013-02-12 04:36:00,17.8,13.2,28.96,SW,225,2.3,2.3,82,0.00,CLR,,0.00,WeatherDisplay:10.37,2013-02-12 10:36:00,
2013-02-12 04:41:00,17.8,13.2,28.96,SW,225,3.5,3.5,82,0.00,CLR,,0.00,WeatherDisplay:10.37,2013-02-12 10:41:00,
2013-02-12 04:46:00,17.8,13.5,28.97,SW,225,4.6,4.6,83,0.00,CLR,,0.00,WeatherDisplay:10.37,2013-02-12 10:46:00,
2013-02-12 04:51:00,17.8,13.5,28.97,South,180,4.6,4.6,83,0.00,CLR,,0.00,WeatherDisplay:10.37,2013-02-12 10:51:00,
2013-02-12 04:56:00,17.6,13.3,28.97,South,180,2.3,2.3,83,0.00,CLR,,0.00,WeatherDisplay:10.37,2013-02-12 10:56:00,
2013-02-12 05:01:00,17.6,13.6,28.96,South,180,5.8,5.8,84,0.00,CLR,,0.00,WeatherDisplay:10.37,2013-02-12 11:01:00,
2013-02-12 05:06:00,17.6,13.6,28.97,South,180,5.8,5.8,84,0.00,CLR,,0.00,WeatherDisplay:10.37,2013-02-12 11:06:00,
2013-02-12 05:11:00,17.4,13.1,28.97,West,270,6.9,6.9,83,0.00,CLR,,0.00,WeatherDisplay:10.37,2013-02-12 11:11:00,
2013-02-12 05:16:00,17.2,13.0,28.97,WNW,292,5.8,5.8,83,0.00,CLR,,0.00,WeatherDisplay:10.37,2013-02-12 11:16:00,
2013-02-12 05:21:00,17.1,12.8,28.97,West,270,5.8,5.8,83,0.00,CLR,,0.00,WeatherDisplay:10.37,2013-02-12 11:21:00,
2013-02-12 05:26:00,17.1,12.8,28.97,West,270,3.5,3.5,83,0.00,CLR,,0.00,WeatherDisplay:10.37,2013-02-12 11:26:00,
2013-02-12 05:31:00,16.9,12.6,28.98,West,270,5.8,5.8,83,0.00,CLR,,0.00,WeatherDisplay:10.37,2013-02-12 11:31:00,
2013-02-12 05:36:00,16.7,12.4,28.98,West,270,6.9,6.9,83,0.00,CLR,,0.00,WeatherDisplay:10.37,2013-02-12 11:36:00,
2013-02-12 05:41:00,16.5,12.5,28.97,South,180,4.6,4.6,84,0.00,CLR,,0.00,WeatherDisplay:10.37,2013-02-12 11:41:00,
2013-02-12 05:46:00,15.8,11.6,28.97,West,270,2.3,2.3,83,0.00,CLR,,0.00,WeatherDisplay:10.37,2013-02-12 11:46:00,
2013-02-12 05:51:00,15.3,11.3,28.98,SW,225,3.5,3.5,84,0.00,CLR,,0.00,WeatherDisplay:10.37,2013-02-12 11:51:00,
2013-02-12 05:56:00,15.1,11.1,28.98,SW,225,3.5,3.5,84,0.00,CLR,,0.00,WeatherDisplay:10.37,2013-02-12 11:56:00,
2013-02-12 06:01:00,14.7,10.8,28.98,SW,225,3.5,3.5,84,0.00,CLR,,0.00,WeatherDisplay:10.37,2013-02-12 12:01:00,
2013-02-12 06:06:00,14.7,10.8,28.97,SW,225,3.5,3.5,84,0.00,CLR,,0.00,WeatherDisplay:10.37,2013-02-12 12:06:00,
2013-02-12 06:11:00,13.8,10.1,28.98,SW,225,1.1,1.1,85,0.00,CLR,,0.00,WeatherDisplay:10.37,2013-02-12 12:11:00,
2013-02-12 06:16:00,13.3,9.6,28.97,South,180,3.5,3.5,85,0.00,CLR,,0.00,WeatherDisplay:10.37,2013-02-12 12:16:00,
2013-02-12 06:21:00,12.9,9.5,28.97,SW,225,1.1,1.1,86,0.00,CLR,,0.00,WeatherDisplay:10.37,2013-02-12 12:21:00,
2013-02-12 06:26:00,12.7,9.3,28.98,SW,225,2.3,2.3,86,0.00,CLR,,0.00,WeatherDisplay:10.37,2013-02-12 12:26:00,
2013-02-12 06:31:00,12.6,9.4,28.98,SW,225,1.1,0.0,87,0.00,CLR,,0.00,WeatherDisplay:10.37,2013-02-12 12:31:00,
2013-02-12 06:37:00,12.6,9.4,28.98,SW,225,2.3,2.3,87,0.00,CLR,,0.00,WeatherDisplay:10.37,2013-02-12 12:37:00,
2013-02-12 06:42:00,12.4,9.2,28.98,SW,225,2.3,2.3,87,0.00,CLR,,0.00,WeatherDisplay:10.37,2013-02-12 12:42:00,
2013-02-12 06:47:00,12.2,9.1,28.97,SW,225,1.1,1.1,87,0.00,CLR,,0.00,WeatherDisplay:10.37,2013-02-12 12:47:00,
2013-02-12 06:52:00,11.8,8.7,28.98,SW,225,1.6,1.6,87,0.00,CLR,,0.00,WeatherDisplay:10.37,2013-02-12 12:52:00,
2013-02-12 06:57:00,11.8,9.0,28.98,SW,225,1.1,1.1,88,0.00,CLR,,0.00,WeatherDisplay:10.37,2013-02-12 12:57:00,
2013-02-12 07:02:00,11.8,9.0,28.97,West,270,1.1,0.0,88,0.00,CLR,,0.00,WeatherDisplay:10.37,2013-02-12 13:02:00,
2013-02-12 07:07:00,11.8,9.0,28.97,West,270,1.1,0.0,88,0.00,CLR,,0.00,WeatherDisplay:10.37,2013-02-12 13:07:00,
2013-02-12 07:12:00,12.0,9.1,28.97,South,180,2.3,2.3,88,0.00,CLR,,0.00,WeatherDisplay:10.37,2013-02-12 13:12:00,
2013-02-12 07:17:00,11.8,9.0,28.97,SW,225,2.3,0.0,88,0.00,CLR,,0.00,WeatherDisplay:10.37,2013-02-12 13:17:00,
2013-02-12 07:22:00,11.8,9.2,28.98,South,180,1.1,1.1,89,0.00,CLR,,0.00,WeatherDisplay:10.37,2013-02-12 13:22:00,
2013-02-12 07:27:00,11.8,9.2,28.97,South,180,2.3,2.3,89,0.00,CLR,,0.00,WeatherDisplay:10.37,2013-02-12 13:27:00,
2013-02-12 07:32:00,11.8,9.2,28.97,South,180,1.1,1.1,89,0.00,CLR,,0.00,WeatherDisplay:10.37,2013-02-12 13:32:00,
2013-02-12 07:37:00,11.7,9.0,28.97,South,180,1.1,0.0,89,0.00,CLR,,0.00,WeatherDisplay:10.37,2013-02-12 13:37:00,
2013-02-12 07:42:00,11.5,8.9,28.97,South,180,1.1,0.0,89,0.00,CLR,,0.00,WeatherDisplay:10.37,2013-02-12 13:42:00,
2013-02-12 07:47:00,11.8,9.2,28.97,SE,135,1.1,0.0,89,0.00,CLR,,0.00,WeatherDisplay:10.37,2013-02-12 13:47:00,
2013-02-12 07:52:00,11.8,9.2,28.97,SE,135,3.5,3.5,89,0.00,CLR,,0.00,WeatherDisplay:10.37,2013-02-12 13:52:00,
2013-02-12 07:57:00,11.8,9.2,28.97,SE,135,2.3,2.3,89,0.00,CLR,,0.00,WeatherDisplay:10.37,2013-02-12 13:57:00,
2013-02-12 08:02:00,12.0,9.4,28.97,SE,135,2.3,2.3,89,0.00,CLR,,0.00,WeatherDisplay:10.37,2013-02-12 14:02:00,
2013-02-12 08:07:00,12.0,9.4,28.97,SE,135,2.3,2.3,89,0.00,CLR,,0.00,WeatherDisplay:10.37,2013-02-12 14:07:00,
2013-02-12 08:12:00,13.3,10.9,28.97,SE,135,2.3,2.3,90,0.00,CLR,,0.00,WeatherDisplay:10.37,2013-02-12 14:12:00,
2013-02-12 08:17:00,14.0,11.6,28.97,SE,135,2.3,2.3,90,0.00,CLR,,0.00,WeatherDisplay:10.37,2013-02-12 14:17:00,
2013-02-12 08:22:00,14.7,12.3,28.97,SE,135,1.1,0.0,90,0.00,CLR,,0.00,WeatherDisplay:10.37,2013-02-12 14:22:00,
2013-02-12 08:27:00,15.3,12.6,28.97,South,180,2.3,2.3,89,0.00,CLR,,0.00,WeatherDisplay:10.37,2013-02-12 14:27:00,
2013-02-12 08:32:00,16.0,13.1,28.97,SE,135,3.1,3.1,88,0.00,CLR,,0.00,WeatherDisplay:10.37,2013-02-12 14:32:00,
2013-02-12 08:37:00,16.2,13.0,28.97,SE,135,3.5,3.5,87,0.00,CLR,,0.00,WeatherDisplay:10.37,2013-02-12 14:37:00,
2013-02-12 08:42:00,16.2,12.7,28.97,SE,135,3.5,3.5,86,0.00,CLR,,0.00,WeatherDisplay:10.37,2013-02-12 14:42:00,
2013-02-12 08:47:00,16.3,12.9,28.97,SE,135,2.3,2.3,86,0.00,CLR,,0.00,WeatherDisplay:10.37,2013-02-12 14:47:00,
2013-02-12 08:52:00,16.5,13.1,28.97,SE,135,3.5,3.5,86,0.00,CLR,,0.00,WeatherDisplay:10.37,2013-02-12 14:52:00,
2013-02-12 08:57:00,16.7,13.0,28.97,ESE,112,4.6,4.6,85,0.00,CLR,,0.00,WeatherDisplay:10.37,2013-02-12 14:57:00,
2013-02-12 09:02:00,16.5,12.8,28.97,SE,135,5.8,5.8,85,0.00,CLR,,0.00,WeatherDisplay:10.37,2013-02-12 15:02:00,
2013-02-12 09:07:00,16.5,12.8,28.96,SE,135,5.8,5.8,85,0.00,CLR,,0.00,WeatherDisplay:10.37,2013-02-12 15:07:00,
2013-02-12 09:12:00,17.2,13.5,28.96,SE,135,5.8,5.8,85,0.00,CLR,,0.00,WeatherDisplay:10.37,2013-02-12 15:12:00,
2013-02-12 09:17:00,17.6,13.9,28.96,SE,135,6.0,6.0,85,0.00,CLR,,0.00,WeatherDisplay:10.37,2013-02-12 15:17:00,
2013-02-12 09:22:00,17.8,13.8,28.95,SE,135,6.9,6.9,84,0.00,CLR,,0.00,WeatherDisplay:10.37,2013-02-12 15:22:00,
2013-02-12 09:27:00,18.1,14.1,28.95,SE,135,6.9,6.9,84,0.00,CLR,,0.00,WeatherDisplay:10.37,2013-02-12 15:27:00,
2013-02-12 09:32:00,18.7,14.6,28.95,SE,135,8.1,8.1,84,0.00,CLR,,0.00,WeatherDisplay:10.37,2013-02-12 15:32:00,
2013-02-12 09:37:00,19.0,14.7,28.95,South,180,8.1,8.1,83,0.00,CLR,,0.00,WeatherDisplay:10.37,2013-02-12 15:37:00,
2013-02-12 09:42:00,19.8,15.4,28.94,West,270,5.8,5.8,83,0.00,CLR,,0.00,WeatherDisplay:10.37,2013-02-12 15:42:00,
2013-02-12 09:47:00,20.8,16.2,28.94,SE,135,3.5,3.5,82,0.00,CLR,,0.00,WeatherDisplay:10.37,2013-02-12 15:47:00,
2013-02-12 09:52:00,21.6,16.6,28.94,SE,135,5.8,5.8,81,0.00,CLR,,0.00,WeatherDisplay:10.37,2013-02-12 15:52:00,
2013-02-12 09:57:00,21.9,16.4,28.94,SE,135,4.6,4.6,79,0.00,CLR,,0.00,WeatherDisplay:10.37,2013-02-12 15:57:00,
2013-02-12 10:02:00,22.1,16.6,28.95,SW,225,2.3,2.3,79,0.00,CLR,,0.00,WeatherDisplay:10.37,2013-02-12 16:02:00,
2013-02-12 10:07:00,22.1,16.6,28.94,SW,225,2.3,2.3,79,0.00,CLR,,0.00,WeatherDisplay:10.37,2013-02-12 16:07:00,
2013-02-12 10:12:00,23.4,17.5,28.94,South,180,3.5,3.5,78,0.00,CLR,,0.00,WeatherDisplay:10.37,2013-02-12 16:12:00,
2013-02-12 10:17:00,24.1,17.6,28.94,South,180,5.8,5.8,76,0.00,CLR,,0.00,WeatherDisplay:10.37,2013-02-12 16:17:00,
2013-02-12 10:22:00,24.3,17.5,28.93,South,180,3.5,3.5,75,0.00,CLR,,0.00,WeatherDisplay:10.37,2013-02-12 16:22:00,
2013-02-12 10:27:00,24.8,18.0,28.94,SE,135,4.6,4.6,75,0.00,CLR,,0.00,WeatherDisplay:10.37,2013-02-12 16:27:00,
2013-02-12 10:32:00,25.3,17.9,28.93,South,180,6.9,6.9,73,0.00,CLR,,0.00,WeatherDisplay:10.37,2013-02-12 16:32:00,
2013-02-12 10:37:00,23.9,17.4,28.94,SE,135,9.2,9.2,76,0.00,CLR,,0.00,WeatherDisplay:10.37,2013-02-12 16:37:00,
2013-02-12 10:42:00,24.4,18.0,28.93,SE,135,6.9,6.9,76,0.00,CLR,,0.00,WeatherDisplay:10.37,2013-02-12 16:42:00,
2013-02-12 10:47:00,24.8,18.0,28.93,SE,135,10.4,10.4,75,0.00,CLR,,0.00,WeatherDisplay:10.37,2013-02-12 16:47:00,
2013-02-12 10:52:00,24.8,18.0,28.93,SE,135,8.1,8.1,75,0.00,CLR,,0.00,WeatherDisplay:10.37,2013-02-12 16:52:00,
2013-02-12 10:57:00,26.2,18.8,28.93,NE,45,5.8,5.8,73,0.00,CLR,,0.00,WeatherDisplay:10.37,2013-02-12 16:57:00,
2013-02-12 11:02:00,26.8,18.6,28.92,SE,135,8.1,8.1,71,0.00,CLR,,0.00,WeatherDisplay:10.37,2013-02-12 17:02:00,
2013-02-12 11:07:00,26.8,18.6,28.92,SE,135,8.1,8.1,71,0.00,CLR,,0.00,WeatherDisplay:10.37,2013-02-12 17:07:00,
2013-02-12 11:12:00,28.9,19.7,28.92,SE,135,4.6,4.6,68,0.00,CLR,,0.00,WeatherDisplay:10.37,2013-02-12 17:12:00,
2013-02-12 11:17:00,28.4,18.8,28.92,SE,135,9.2,9.2,67,0.00,CLR,,0.00,WeatherDisplay:10.37,2013-02-12 17:17:00,
2013-02-12 11:22:00,27.1,18.3,28.91,SE,135,9.2,9.2,69,0.00,CLR,,0.00,WeatherDisplay:10.37,2013-02-12 17:22:00,
2013-02-12 11:27:00,27.1,18.6,28.91,SE,135,5.8,5.8,70,0.00,CLR,,0.00,WeatherDisplay:10.37,2013-02-12 17:27:00,
2013-02-12 11:32:00,27.1,18.6,28.91,SE,135,5.8,5.8,70,0.00,CLR,,0.00,WeatherDisplay:10.37,2013-02-12 17:32:00,
2013-02-12 11:37:00,27.3,18.8,28.91,SW,225,5.8,5.8,70,0.00,CLR,,0.00,WeatherDisplay:10.37,2013-02-12 17:37:00,
2013-02-12 11:42:00,27.1,18.6,28.90,South,180,4.6,4.6,70,0.00,CLR,,0.00,WeatherDisplay:10.37,2013-02-12 17:42:00,
2013-02-12 11:47:00,27.0,19.1,28.90,SE,135,4.6,4.6,72,0.00,CLR,,0.00,WeatherDisplay:10.37,2013-02-12 17:47:00,
2013-02-12 11:52:00,27.3,19.5,28.90,South,180,4.6,4.6,72,0.00,CLR,,0.00,WeatherDisplay:10.37,2013-02-12 17:52:00,
2013-02-12 11:57:00,27.5,19.7,28.90,South,180,3.5,3.5,72,0.00,CLR,,0.00,WeatherDisplay:10.37,2013-02-12 17:57:00,
2013-02-12 12:02:00,27.7,19.5,28.90,South,180,3.5,3.5,71,0.00,CLR,,0.00,WeatherDisplay:10.37,2013-02-12 18:02:00,
2013-02-12 12:07:00,27.7,19.5,28.89,South,180,3.5,3.5,71,0.00,CLR,,0.00,WeatherDisplay:10.37,2013-02-12 18:07:00,
2013-02-12 12:12:00,27.9,19.7,28.89,South,180,3.5,3.5,71,0.00,CLR,,0.00,WeatherDisplay:10.37,2013-02-12 18:12:00,
2013-02-12 12:17:00,28.0,19.8,28.88,SW,225,5.8,5.8,71,0.00,CLR,,0.00,WeatherDisplay:10.37,2013-02-12 18:17:00,
2013-02-12 12:22:00,28.2,20.0,28.88,SW,225,4.6,4.6,71,0.00,CLR,,0.00,WeatherDisplay:10.37,2013-02-12 18:22:00,
2013-02-12 12:27:00,28.4,20.2,28.87,West,270,3.5,3.5,71,0.00,CLR,,0.00,WeatherDisplay:10.37,2013-02-12 18:27:00,
2013-02-12 12:32:00,28.6,20.4,28.87,South,180,4.6,4.6,71,0.00,CLR,,0.00,WeatherDisplay:10.37,2013-02-12 18:32:00,
2013-02-12 12:37:00,28.6,20.4,28.87,SW,225,3.5,3.5,71,0.00,CLR,,0.00,WeatherDisplay:10.37,2013-02-12 18:37:00,
2013-02-12 12:42:00,28.6,20.4,28.87,South,180,4.6,4.6,71,0.00,CLR,,0.00,WeatherDisplay:10.37,2013-02-12 18:42:00,
2013-02-12 12:47:00,28.4,20.5,28.87,South,180,6.9,6.9,72,0.00,CLR,,0.00,WeatherDisplay:10.37,2013-02-12 18:47:00,
2013-02-12 12:52:00,28.9,20.7,28.86,South,180,3.5,3.5,71,0.00,CLR,,0.00,WeatherDisplay:10.37,2013-02-12 18:52:00,
2013-02-12 12:57:00,29.5,20.9,28.87,SW,225,3.5,3.5,70,0.00,CLR,,0.00,WeatherDisplay:10.37,2013-02-12 18:57:00,
2013-02-12 13:02:00,29.8,20.9,28.86,South,180,3.5,3.5,69,0.00,CLR,,0.00,WeatherDisplay:10.37,2013-02-12 19:02:00,
2013-02-12 13:07:00,29.8,20.9,28.86,South,180,3.5,3.5,69,0.00,CLR,,0.00,WeatherDisplay:10.37,2013-02-12 19:07:00,
2013-02-12 13:12:00,29.8,20.9,28.86,South,180,3.5,3.5,69,0.00,CLR,,0.00,WeatherDisplay:10.37,2013-02-12 19:12:00,
2013-02-12 13:17:00,30.0,20.7,28.85,South,180,4.6,4.6,68,0.00,CLR,,0.00,WeatherDisplay:10.37,2013-02-12 19:17:00,
2013-02-12 13:22:00,30.0,20.7,28.85,South,180,2.3,2.3,68,0.00,CLR,,0.00,WeatherDisplay:10.37,2013-02-12 19:22:00,
2013-02-12 13:27:00,30.6,20.9,28.85,ESE,112,3.8,3.8,67,0.00,CLR,,0.00,WeatherDisplay:10.37,2013-02-12 19:27:00,
2013-02-12 13:32:00,31.1,21.1,28.85,South,180,3.5,3.5,66,0.00,CLR,,0.00,WeatherDisplay:10.37,2013-02-12 19:32:00,
2013-02-12 13:37:00,32.4,21.9,28.84,South,180,3.5,3.5,65,0.00,CLR,,0.00,WeatherDisplay:10.37,2013-02-12 19:37:00,
2013-02-12 13:42:00,33.3,22.0,28.85,SSE,158,4.6,4.6,63,0.00,CLR,,0.00,WeatherDisplay:10.37,2013-02-12 19:42:00,
2013-02-12 13:47:00,34.2,22.1,28.85,South,180,5.8,5.8,61,0.00,CLR,,0.00,WeatherDisplay:10.37,2013-02-12 19:47:00,
2013-02-12 13:52:00,35.2,22.3,28.84,South,180,6.9,6.9,59,0.00,CLR,,0.00,WeatherDisplay:10.37,2013-02-12 19:52:00,
2013-02-12 13:57:00,36.1,22.4,28.84,South,180,4.6,4.6,57,0.00,CLR,,0.00,WeatherDisplay:10.37,2013-02-12 19:57:00,
2013-02-12 14:02:00,36.5,22.3,28.84,SW,225,5.8,5.8,56,0.00,CLR,,0.00,WeatherDisplay:10.37,2013-02-12 20:02:00,
2013-02-12 14:07:00,36.5,22.3,28.84,SW,225,5.8,5.8,56,0.00,CLR,,0.00,WeatherDisplay:10.37,2013-02-12 20:07:00,
2013-02-12 14:12:00,37.4,22.3,28.84,SW,225,4.6,4.6,54,0.00,CLR,,0.00,WeatherDisplay:10.37,2013-02-12 20:12:00,
2013-02-12 14:17:00,38.5,22.8,28.83,South,180,5.8,5.8,53,0.00,CLR,,0.00,WeatherDisplay:10.37,2013-02-12 20:17:00,
2013-02-12 14:22:00,39.2,23.5,28.83,South,180,3.5,3.5,53,0.01,RA,,0.01,WeatherDisplay:10.37,2013-02-12 20:22:00,
2013-02-12 14:27:00,39.2,23.0,28.82,SW,225,4.6,4.6,52,0.01,RA,,0.01,WeatherDisplay:10.37,2013-02-12 20:27:00,
2013-02-12 14:32:00,39.0,22.9,28.82,South,180,5.8,5.8,52,0.01,,,0.01,WeatherDisplay:10.37,2013-02-12 20:32:00,
2013-02-12 14:37:00,39.9,22.8,28.82,SE,135,4.6,4.6,50,0.01,CLR,,0.01,WeatherDisplay:10.37,2013-02-12 20:37:00,
2013-02-12 14:42:00,39.4,22.7,28.82,South,180,3.5,3.5,51,0.01,CLR,,0.01,WeatherDisplay:10.37,2013-02-12 20:42:00,
2013-02-12 14:47:00,39.2,22.6,28.82,South,180,5.8,5.8,51,0.01,CLR,,0.01,WeatherDisplay:10.37,2013-02-12 20:47:00,
2013-02-12 14:52:00,38.8,22.7,28.82,South,180,5.8,5.8,52,0.01,CLR,,0.01,WeatherDisplay:10.37,2013-02-12 20:52:00,
2013-02-12 14:57:00,38.5,22.8,28.82,South,180,5.8,5.8,53,0.01,CLR,,0.01,WeatherDisplay:10.37,2013-02-12 20:57:00,
2013-02-12 15:02:00,38.5,23.3,28.82,SE,135,4.6,4.6,54,0.01,CLR,,0.01,WeatherDisplay:10.37,2013-02-12 21:02:00,
2013-02-12 15:07:00,38.5,23.3,28.82,SE,135,4.6,4.6,54,0.01,CLR,,0.01,WeatherDisplay:10.37,2013-02-12 21:07:00,
2013-02-12 15:12:00,39.2,23.5,28.82,SW,225,4.6,4.6,53,0.01,CLR,,0.01,WeatherDisplay:10.37,2013-02-12 21:12:00,
2013-02-12 15:17:00,39.6,22.9,28.82,SE,135,5.8,5.8,51,0.01,CLR,,0.01,WeatherDisplay:10.37,2013-02-12 21:17:00,
2013-02-12 15:22:00,39.9,23.7,28.82,SW,225,3.5,3.5,52,0.01,CLR,,0.01,WeatherDisplay:10.37,2013-02-12 21:22:00,
2013-02-12 15:27:00,39.6,22.9,28.82,South,180,3.5,3.5,51,0.00,CLR,,0.01,WeatherDisplay:10.37,2013-02-12 21:27:00,
2013-02-12 15:32:00,40.3,24.0,28.82,South,180,2.3,2.3,52,0.00,CLR,,0.01,WeatherDisplay:10.37,2013-02-12 21:32:00,
2013-02-12 15:37:00,40.8,23.6,28.82,South,180,4.6,4.6,50,0.00,CLR,,0.01,WeatherDisplay:10.37,2013-02-12 21:37:00,
2013-02-12 15:42:00,40.3,23.6,28.81,South,180,4.6,4.6,51,0.00,CLR,,0.01,WeatherDisplay:10.37,2013-02-12 21:42:00,
2013-02-12 15:47:00,39.7,23.5,28.81,South,180,3.5,3.5,52,0.00,CLR,,0.01,WeatherDisplay:10.37,2013-02-12 21:47:00,
2013-02-12 15:52:00,39.7,24.0,28.81,South,180,3.5,3.5,53,0.00,CLR,,0.01,WeatherDisplay:10.37,2013-02-12 21:52:00,
2013-02-12 15:57:00,39.7,24.0,28.81,South,180,2.3,2.3,53,0.00,CLR,,0.01,WeatherDisplay:10.37,2013-02-12 21:57:00,
2013-02-12 16:02:00,39.7,23.5,28.81,South,180,3.5,3.5,52,0.00,CLR,,0.01,WeatherDisplay:10.37,2013-02-12 22:02:00,
2013-02-12 16:07:00,39.7,23.5,28.80,South,180,3.5,3.5,52,0.00,CLR,,0.01,WeatherDisplay:10.37,2013-02-12 22:07:00,
2013-02-12 16:12:00,37.2,22.5,28.80,South,180,5.8,5.8,55,0.00,CLR,,0.01,WeatherDisplay:10.37,2013-02-12 22:12:00,
2013-02-12 16:17:00,34.5,22.1,28.80,South,180,3.5,3.5,60,0.00,CLR,,0.01,WeatherDisplay:10.37,2013-02-12 22:17:00,
2013-02-12 16:22:00,34.5,22.1,28.80,South,180,2.3,2.3,60,0.00,CLR,,0.01,WeatherDisplay:10.37,2013-02-12 22:22:00,
2013-02-12 16:27:00,33.3,22.8,28.80,SW,225,2.3,2.3,65,0.00,CLR,,0.01,WeatherDisplay:10.37,2013-02-12 22:27:00,
2013-02-12 16:34:00,32.9,22.8,28.80,South,180,3.5,3.5,66,0.00,CLR,,0.01,WeatherDisplay:10.37,2013-02-12 22:34:00,
2013-02-12 16:39:00,32.9,22.8,28.80,South,180,3.5,3.5,66,0.00,CLR,,0.01,WeatherDisplay:10.37,2013-02-12 22:39:00,
2013-02-12 16:44:00,32.4,22.6,28.80,South,180,2.3,2.3,67,0.00,CLR,,0.01,WeatherDisplay:10.37,2013-02-12 22:44:00,
2013-02-12 16:52:00,31.5,22.5,28.79,SW,225,3.5,3.5,69,0.00,CLR,,0.01,WeatherDisplay:10.37,2013-02-12 22:52:00,
2013-02-12 16:57:00,31.1,22.1,28.80,SW,225,3.5,3.5,69,0.00,CLR,,0.01,WeatherDisplay:10.37,2013-02-12 22:57:00,
2013-02-12 17:02:00,30.7,22.1,28.80,SW,225,3.5,3.5,70,0.00,CLR,,0.01,WeatherDisplay:10.37,2013-02-12 23:02:00,
2013-02-12 17:07:00,30.7,22.1,28.80,SW,225,3.5,3.5,70,0.00,CLR,,0.01,WeatherDisplay:10.37,2013-02-12 23:07:00,
2013-02-12 17:12:00,29.7,21.7,28.80,SSW,202,3.5,3.5,72,0.00,CLR,,0.01,WeatherDisplay:10.37,2013-02-12 23:12:00,
2013-02-12 17:17:00,29.1,21.2,28.79,SW,225,3.5,3.5,72,0.00,CLR,,0.01,WeatherDisplay:10.37,2013-02-12 23:17:00,
2013-02-12 17:22:00,28.6,21.0,28.80,SW,225,3.5,3.5,73,0.00,CLR,,0.01,WeatherDisplay:10.37,2013-02-12 23:22:00,
2013-02-12 17:27:00,28.0,20.8,28.80,SW,225,2.3,2.3,74,0.00,CLR,,0.01,WeatherDisplay:10.37,2013-02-12 23:27:00,
2013-02-12 17:32:00,27.5,20.6,28.80,South,180,2.3,2.3,75,0.00,CLR,,0.01,WeatherDisplay:10.37,2013-02-12 23:32:00,
2013-02-12 17:37:00,27.1,20.3,28.80,South,180,3.5,3.5,75,0.00,CLR,,0.01,WeatherDisplay:10.37,2013-02-12 23:37:00,
2013-02-12 17:42:00,27.0,20.1,28.80,SW,225,2.3,2.3,75,0.00,CLR,,0.01,WeatherDisplay:10.37,2013-02-12 23:42:00,
2013-02-12 17:47:00,26.6,20.1,28.81,SW,225,2.3,2.3,76,0.00,CLR,,0.01,WeatherDisplay:10.37,2013-02-12 23:47:00,
2013-02-12 17:52:00,26.6,20.1,28.81,SW,225,3.5,3.5,76,0.00,CLR,,0.01,WeatherDisplay:10.37,2013-02-12 23:52:00,
2013-02-12 17:57:00,26.4,19.9,28.80,SW,225,2.3,2.3,76,0.00,CLR,,0.01,WeatherDisplay:10.37,2013-02-12 23:57:00,
2013-02-12 18:02:00,26.4,20.2,28.81,SW,225,2.3,2.3,77,0.00,CLR,,0.01,WeatherDisplay:10.37,2013-02-13 00:02:00,
2013-02-12 18:07:00,26.1,19.5,28.81,NW,315,1.1,0.0,76,0.00,CLR,,0.01,WeatherDisplay:10.37,2013-02-13 00:07:00,
2013-02-12 18:12:00,25.7,19.8,28.81,SW,225,3.5,3.5,78,0.00,CLR,,0.01,WeatherDisplay:10.37,2013-02-13 00:12:00,
2013-02-12 18:17:00,25.7,19.8,28.80,South,180,2.3,2.3,78,0.00,CLR,,0.01,WeatherDisplay:10.37,2013-02-13 00:17:00,
2013-02-12 18:22:00,25.7,19.8,28.81,South,180,2.3,2.3,78,0.00,CLR,,0.01,WeatherDisplay:10.37,2013-02-13 00:22:00,
2013-02-12 18:27:00,25.5,19.6,28.80,SW,225,1.1,1.1,78,0.00,CLR,,0.01,WeatherDisplay:10.37,2013-02-13 00:27:00,
2013-02-12 18:32:00,25.2,19.6,28.80,SW,225,2.3,2.3,79,0.00,CLR,,0.01,WeatherDisplay:10.37,2013-02-13 00:32:00,
2013-02-12 18:37:00,24.8,19.5,28.80,SW,225,2.3,2.3,80,0.00,CLR,,0.01,WeatherDisplay:10.37,2013-02-13 00:37:00,
2013-02-12 18:42:00,24.6,19.3,28.80,South,180,3.5,3.5,80,0.00,CLR,,0.01,WeatherDisplay:10.37,2013-02-13 00:42:00,
2013-02-12 18:47:00,24.1,19.1,28.80,South,180,2.3,0.0,81,0.00,CLR,,0.01,WeatherDisplay:10.37,2013-02-13 00:47:00,
2013-02-12 18:52:00,23.9,19.2,28.80,South,180,1.1,0.0,82,0.00,CLR,,0.01,WeatherDisplay:10.37,2013-02-13 00:52:00,
2013-02-12 18:57:00,23.5,18.9,28.80,West,270,1.1,0.0,82,0.00,CLR,,0.01,WeatherDisplay:10.37,2013-02-13 00:57:00,
2013-02-12 19:02:00,23.5,19.1,28.80,SE,135,1.1,1.1,83,0.00,CLR,,0.01,WeatherDisplay:10.37,2013-02-13 01:02:00,
2013-02-12 19:07:00,23.5,19.1,28.80,SE,135,1.1,1.1,83,0.00,CLR,,0.01,WeatherDisplay:10.37,2013-02-13 01:07:00,
2013-02-12 19:12:00,23.5,19.4,28.80,South,180,1.1,0.0,84,0.00,CLR,,0.01,WeatherDisplay:10.37,2013-02-13 01:12:00,
2013-02-12 19:17:00,23.2,18.8,28.79,South,180,1.1,1.1,83,0.00,CLR,,0.01,WeatherDisplay:10.37,2013-02-13 01:17:00,
2013-02-12 19:22:00,22.6,18.5,28.79,South,180,1.1,1.1,84,0.00,CLR,,0.01,WeatherDisplay:10.37,2013-02-13 01:22:00,
2013-02-12 19:27:00,21.9,18.1,28.80,South,180,1.1,0.0,85,0.00,CLR,,0.01,WeatherDisplay:10.37,2013-02-13 01:27:00,
2013-02-12 19:32:00,21.7,18.2,28.80,South,180,1.1,1.1,86,0.00,CLR,,0.01,WeatherDisplay:10.37,2013-02-13 01:32:00,
2013-02-12 19:37:00,21.2,17.7,28.80,South,180,1.1,0.0,86,0.00,CLR,,0.01,WeatherDisplay:10.37,2013-02-13 01:37:00,
2013-02-12 19:42:00,20.8,17.6,28.79,South,180,1.1,0.0,87,0.00,CLR,,0.01,WeatherDisplay:10.37,2013-02-13 01:42:00,
2013-02-12 19:47:00,20.8,17.8,28.80,SW,225,2.3,2.3,88,0.00,CLR,,0.01,WeatherDisplay:10.37,2013-02-13 01:47:00,
2013-02-12 19:52:00,21.7,19.0,28.79,SE,135,3.5,3.5,89,0.00,CLR,,0.01,WeatherDisplay:10.37,2013-02-13 01:52:00,
2013-02-12 19:57:00,21.2,17.9,28.79,WSW,248,1.1,0.0,87,0.00,CLR,,0.01,WeatherDisplay:10.37,2013-02-13 01:57:00,
2013-02-12 20:02:00,20.7,17.4,28.79,SW,225,1.1,0.0,87,0.00,CLR,,0.01,WeatherDisplay:10.37,2013-02-13 02:02:00,
2013-02-12 20:07:00,20.7,17.4,28.79,SW,225,1.1,0.0,87,0.00,CLR,,0.01,WeatherDisplay:10.37,2013-02-13 02:07:00,
2013-02-12 20:12:00,19.0,15.8,28.78,SW,225,1.1,0.0,87,0.00,CLR,,0.01,WeatherDisplay:10.37,2013-02-13 02:12:00,
2013-02-12 20:17:00,19.0,16.1,28.79,West,270,1.1,0.0,88,0.00,CLR,,0.01,WeatherDisplay:10.37,2013-02-13 02:17:00,
2013-02-12 20:22:00,18.7,15.5,28.78,West,270,1.1,0.0,87,0.00,CLR,,0.01,WeatherDisplay:10.37,2013-02-13 02:22:00,
2013-02-12 20:27:00,18.1,15.2,28.78,North,0,1.1,1.1,88,0.00,CLR,,0.01,WeatherDisplay:10.37,2013-02-13 02:27:00,
2013-02-12 20:32:00,17.6,14.7,28.79,North,0,1.1,0.0,88,0.00,CLR,,0.01,WeatherDisplay:10.37,2013-02-13 02:32:00,
2013-02-12 20:37:00,17.1,14.1,28.78,North,0,1.1,0.0,88,0.00,CLR,,0.01,WeatherDisplay:10.37,2013-02-13 02:37:00,
2013-02-12 20:42:00,17.1,14.4,28.78,South,180,1.1,0.0,89,0.00,CLR,,0.01,WeatherDisplay:10.37,2013-02-13 02:42:00,
2013-02-12 20:48:00,17.6,15.2,28.78,South,180,1.1,0.0,90,0.00,CLR,,0.01,WeatherDisplay:10.37,2013-02-13 02:48:00,
2013-02-12 20:53:00,17.4,15.0,28.78,South,180,1.1,0.0,90,0.00,CLR,,0.01,WeatherDisplay:10.37,2013-02-13 02:53:00,
2013-02-12 20:58:00,17.2,14.8,28.78,South,180,0.0,0.0,90,0.00,CLR,,0.01,WeatherDisplay:10.37,2013-02-13 02:58:00,
2013-02-12 21:03:00,17.1,14.6,28.78,South,180,1.1,0.0,90,0.00,CLR,,0.01,WeatherDisplay:10.37,2013-02-13 03:03:00,
2013-02-12 21:08:00,16.3,13.9,28.77,NW,315,1.1,1.1,90,0.00,CLR,,0.01,WeatherDisplay:10.37,2013-02-13 03:08:00,
2013-02-12 21:13:00,16.2,13.7,28.78,North,0,1.1,0.0,90,0.00,CLR,,0.01,WeatherDisplay:10.37,2013-02-13 03:13:00,
2013-02-12 21:18:00,15.8,13.4,28.78,South,180,1.1,1.1,90,0.00,CLR,,0.01,WeatherDisplay:10.37,2013-02-13 03:18:00,
2013-02-12 21:23:00,16.0,13.8,28.77,South,180,1.1,1.1,91,0.00,CLR,,0.01,WeatherDisplay:10.37,2013-02-13 03:23:00,
2013-02-12 21:28:00,16.3,14.4,28.77,South,180,1.1,0.0,92,0.00,CLR,,0.01,WeatherDisplay:10.37,2013-02-13 03:28:00,
2013-02-12 21:33:00,16.5,14.6,28.77,NW,315,1.1,0.0,92,0.00,CLR,,0.01,WeatherDisplay:10.37,2013-02-13 03:33:00,
2013-02-12 21:38:00,16.2,14.2,28.77,NW,315,0.0,0.0,92,0.00,CLR,,0.01,WeatherDisplay:10.37,2013-02-13 03:38:00,
2013-02-12 21:43:00,15.6,13.7,28.77,NW,315,1.1,1.1,92,0.00,CLR,,0.01,WeatherDisplay:10.37,2013-02-13 03:43:00,
2013-02-12 21:48:00,15.3,13.1,28.77,NW,315,1.1,1.1,91,0.00,CLR,,0.01,WeatherDisplay:10.37,2013-02-13 03:48:00,
2013-02-12 21:53:00,15.6,13.7,28.77,NW,315,1.1,0.0,92,0.00,CLR,,0.01,WeatherDisplay:10.37,2013-02-13 03:53:00,
2013-02-12 21:58:00,15.8,13.9,28.77,NW,315,1.1,0.0,92,0.00,CLR,,0.01,WeatherDisplay:10.37,2013-02-13 03:58:00,
2013-02-12 22:03:00,15.6,13.7,28.78,NW,315,0.0,0.0,92,0.00,CLR,,0.01,WeatherDisplay:10.37,2013-02-13 04:03:00,
2013-02-12 22:08:00,15.3,13.1,28.77,NW,315,0.0,0.0,91,0.00,CLR,,0.01,WeatherDisplay:10.37,2013-02-13 04:08:00,
2013-02-12 22:13:00,15.1,12.9,28.77,South,180,0.0,0.0,91,0.00,CLR,,0.01,WeatherDisplay:10.37,2013-02-13 04:13:00,
2013-02-12 22:18:00,15.3,13.6,28.77,SE,135,2.3,2.3,93,0.00,CLR,,0.01,WeatherDisplay:10.37,2013-02-13 04:18:00,
2013-02-12 22:23:00,15.6,14.2,28.77,SSE,158,3.5,3.5,94,0.00,CLR,,0.01,WeatherDisplay:10.37,2013-02-13 04:23:00,
2013-02-12 22:28:00,15.6,14.2,28.77,South,180,1.1,0.0,94,0.00,CLR,,0.01,WeatherDisplay:10.37,2013-02-13 04:28:00,
2013-02-12 22:33:00,15.4,14.0,28.77,NE,45,1.1,0.0,94,0.00,CLR,,0.01,WeatherDisplay:10.37,2013-02-13 04:33:00,
2013-02-12 22:38:00,15.1,13.4,28.77,NW,315,1.1,0.0,93,0.00,CLR,,0.01,WeatherDisplay:10.37,2013-02-13 04:38:00,
2013-02-12 22:43:00,14.5,12.9,28.76,NW,315,1.1,0.0,93,0.00,CLR,,0.01,WeatherDisplay:10.37,2013-02-13 04:43:00,
2013-02-12 22:48:00,14.2,12.5,28.77,South,180,1.1,0.0,93,0.00,CLR,,0.01,WeatherDisplay:10.37,2013-02-13 04:48:00,
2013-02-12 22:53:00,14.0,12.3,28.76,South,180,0.0,0.0,93,0.00,CLR,,0.01,WeatherDisplay:10.37,2013-02-13 04:53:00,
2013-02-12 22:58:00,14.2,12.5,28.76,North,0,1.1,0.0,93,0.00,CLR,,0.01,WeatherDisplay:10.37,2013-02-13 04:58:00,
2013-02-12 23:00:00,14.0,12.3,28.76,North,0,1.1,0.0,93,0.00,CLR,,0.01,WeatherDisplay:10.37,2013-02-13 05:00:00,
2013-02-12 23:01:00,14.0,12.3,28.76,North,0,1.1,0.0,93,0.00,CLR,,0.01,WeatherDisplay:10.37,2013-02-13 05:01:00,
2013-02-12 23:02:00,14.0,12.3,28.76,North,0,1.1,0.0,93,0.00,CLR,,0.01,WeatherDisplay:10.37,2013-02-13 05:02:00,
2013-02-12 23:07:00,14.0,12.3,28.76,North,0,1.1,0.0,93,0.00,CLR,,0.01,WeatherDisplay:10.37,2013-02-13 05:07:00,
2013-02-12 23:12:00,14.0,12.3,28.75,NNW,338,1.1,1.1,93,0.00,CLR,,0.01,WeatherDisplay:10.37,2013-02-13 05:12:00,
2013-02-12 23:17:00,13.8,12.2,28.75,NW,315,2.3,2.3,93,0.00,CLR,,0.01,WeatherDisplay:10.37,2013-02-13 05:17:00,
2013-02-12 23:22:00,13.8,12.2,28.75,NW,315,2.3,2.3,93,0.00,CLR,,0.01,WeatherDisplay:10.37,2013-02-13 05:22:00,
2013-02-12 23:27:00,15.1,13.7,28.75,NW,315,1.1,1.1,94,0.00,CLR,,0.01,WeatherDisplay:10.37,2013-02-13 05:27:00,
2013-02-12 23:32:00,15.4,14.0,28.75,NW,315,1.1,0.0,94,0.00,CLR,,0.01,WeatherDisplay:10.37,2013-02-13 05:32:00,
2013-02-12 23:37:00,15.8,14.4,28.75,South,180,1.1,0.0,94,0.00,CLR,,0.01,WeatherDisplay:10.37,2013-02-13 05:37:00,
2013-02-12 23:42:00,15.8,14.1,28.75,South,180,1.1,0.0,93,0.00,CLR,,0.01,WeatherDisplay:10.37,2013-02-13 05:42:00,
2013-02-12 23:47:00,15.6,14.0,28.75,South,180,1.6,1.6,93,0.00,CLR,,0.01,WeatherDisplay:10.37,2013-02-13 05:47:00,
2013-02-12 23:52:00,15.6,14.0,28.75,South,180,1.1,1.1,93,0.00,CLR,,0.01,WeatherDisplay:10.37,2013-02-13 05:52:00,
2013-02-12 23:57:00,15.6,14.2,28.75,South,180,1.1,1.1,94,0.00,CLR,,0.01,WeatherDisplay:10.37,2013-02-13 05:57:00,